sat.trackr.live / text

‹ back to catalog

STARLINK-36941

NORAD 67991 · 2026-039F

PAYLOAD ACTIVE UNKNOWN

§ Identity

Operator
Country
US
Launch date
2026-02-27
Launch site
AFETR
Launch vehicle
Mass (kg)
RCS (m²)

Purposes: comms

External: N2YO · Heavens-Above · Gunter

§ Orbital elements

Epoch: 2026-09-19T16:53:30.023808Z

Period
94.27 min
Inclination
43.0065°
Eccentricity
0.0003213
Mean motion
15.27594186 rev/d
Perigee alt
480.8 km
Apogee alt
485.2 km
Semi-major
6,861.1 km
B*
4.5149e-4
RAAN
33.4180°
Arg perigee
276.7079°
Mean anomaly
83.3407°
Rev number
3,137

§ Raw data

STARLINK-369411 67991U 26039F   26262.70381972  .00012188  00000+0  45149-3 0  99922 67991  43.0065  33.4180 0003213 276.7079  83.3407 15.27594186 31375

JSON: /api/v1/satellites/67991 · /tle

For live sub-satellite position, see the globe view (requires WebGL).

§ Visibility from observer

Set your observer location to see the next 7 days of passes ≥ 10°. The values pass through the URL so the page stays shareable.

No JS? Fill the form by hand. The geolocation button needs JavaScript.